Погода в Мидделбурге

Нидерланды     51°29′48″N   3°37′00″E
темп.,
°C
ветер,
м/с
пор.,
м/с
влажн.,
%
обл.,
%
осадки,
мм/ч
давл.,
гПа
погр.,
м
12 мая, ср
ср1223:00+11юз3477100 0.0 101144
02:00+10юз61083100 0.0 1011258
05:00+9юз59894 0.0 1011358
08:00+9юз58895 0.0 1012339
11:00+11зюз468031 0.0 1012266
14:00+10сз438593 0.3 1011159
17:00+11ссв3280100 0.4 1011149
20:00+11всв2386100 1.8 101074
13 мая, чт
чт1323:00+11в44855 0.5 101062
02:00+10вюв34855 0.6 100986
05:00+9юв34839 0.0 1008105
08:00+9юв357988 0.0 1008151
11:00+12ю2377100 0.0 100891
14:00+11юз338889 0.1 1008219
17:00+10зсз5594100 0.3 1007318
20:00+10ссз3292100 0.4 1007179
14 мая, пт
пт1423:00+10ссз118930 0.1 100773
02:00+10юз118859 0.1 100650
05:00+10ююз22875 0.0 100675
08:00+9юз22835 0.0 1007138
11:00+10сз228940 0.0 1007230
14:00+10с549487 0.1 1008312
17:00+10с558926 0.1 1008325
20:00+10с66837 0.1 1008385
15 мая, сб
сб1523:00+10с66835 0.0 1009404
02:00+9ссв44815 0.0 1008371
05:00+9сз23795 0.0 1008378
08:00+9св11765 0.0 1008251
11:00+9сз21775 0.0 1008286
14:00+9с228141 0.2 1007200
17:00+10с3276100 0.3 1006227
20:00+10зсз6586100 1.6 1006336
16 мая, вс
вс1623:00+10зсз2283100 1.1 1007338
02:00+10юз5589100 1.4 1007407
05:00+9ююз579177 0.2 1006245
08:00+9ююз689197 0.3 1007294
11:00+11зюз79876 0.3 1007522
14:00+11з68855 0.6 1007395
17:00+12зюз357690 0.3 1006164
20:00+12юз5784100 1.6 1005161